Weather History for Cape Girardeau, MO

Change the Weather History Date:

Sunday, November 4, 2012

  Actual Average Record
Temperature  
Mean Temperature 46 °F 52 °F  
Max Temperature 55 °F 63 °F 82 °F (1987)
Min Temperature 37 °F 40 °F 16 °F (1991)
Degree Days  
Heating Degree Days 19 14  
Month to date heating degree days 65 53  
Since 1 July heating degree days 410 356  
Cooling Degree Days 0 0  
Month to date cooling degree days 0 0  
Year to date cooling degree days 1784 1451  
Moisture  
Dew Point 35 °F    
Average Humidity 68    
Maximum Humidity 92    
Minimum Humidity 43    
Precipitation  
Precipitation 0.00 in 0.13 in 2.36 in (1994)
Month to date precipitation 0.00 0.52  
Year to date precipitation 23.96 38.64  
Sea Level Pressure  
Sea Level Pressure 30.19 in    
Wind  
Wind Speed 5 mph (NNE)    
Max Wind Speed 10 mph    
Max Gust Speed 16 mph    
Visibility 8 miles    
Events      
T = Trace of Precipitation, MM = Missing Value Source: NWS Daily Summary

Daily Weather History Graph

Daily Weather History Graph

Search for Another Location

Airport:

Trip Planner

Search our weather history database for the weather conditions in past years. The results will help you decide how hot, cold, wet, or windy it might be!

Date:

Astronomy

Nov. 04, 2012 Rise Set
Actual Time 6:26 AM CST 4:56 PM CST
Civil Twilight 5:59 AM CST 5:24 PM CST
Nautical Twilight 5:28 AM CST 5:54 PM CST
Astronomical Twilight 4:57 AM CST 6:25 PM CST
Moon 9:36 PM CST (11/4) 11:08 AM CST (11/4)
Length of Visible Light 11h 24m
Length of Day
10h 30m
Waning Gibbous, 72% of the Moon is Illuminated
Nov 4
Waning Gibbous
Nov 6
Last Quarter
Nov 13
New
Nov 20
First Quarter
Nov 28
Full

Hourly Weather History & Observations

Time (CST) Temp. Windchill Dew Point Humidity Pressure Visibility Wind Dir Wind Speed Gust Speed Precip Events Conditions
12:53 AM 41.0 °F 37.1 °F 36.0 °F 82% 30.15 in 10.0 mi NNW 5.8 mph - N/A   Clear
1:53 AM 37.9 °F - 35.1 °F 89% 30.17 in 8.0 mi Calm Calm - N/A   Clear
1:53 AM 37.9 °F 32.1 °F 35.1 °F 89% 30.17 in 6.0 mi North 8.1 mph - N/A   Clear
2:24 AM 39.2 °F 34.2 °F 37.4 °F 93% 30.17 in 6.0 mi North 6.9 mph - N/A   Mostly Cloudy
2:53 AM 41.0 °F 35.2 °F 37.9 °F 89% 30.17 in 7.0 mi North 9.2 mph - N/A   Overcast
3:53 AM 39.9 °F 33.9 °F 37.0 °F 89% 30.19 in 6.0 mi NNE 9.2 mph - N/A   Overcast
4:53 AM 39.9 °F 34.5 °F 37.0 °F 89% 30.20 in 6.0 mi NNE 8.1 mph - N/A   Overcast
5:53 AM 39.9 °F 35.1 °F 36.0 °F 86% 30.21 in 6.0 mi North 6.9 mph - N/A   Overcast
6:53 AM 39.9 °F 34.5 °F 36.0 °F 86% 30.23 in 5.0 mi North 8.1 mph - N/A   Overcast
7:53 AM 39.9 °F 34.5 °F 36.0 °F 86% 30.24 in 6.0 mi North 8.1 mph - N/A   Overcast
8:53 AM 42.1 °F 40.2 °F 36.0 °F 79% 30.24 in 5.0 mi NNE 3.5 mph - N/A   Haze
9:16 AM 42.8 °F 40.1 °F 35.6 °F 76% 30.23 in 6.0 mi Variable 4.6 mph - N/A   Haze
9:53 AM 44.1 °F 40.1 °F 36.0 °F 73% 30.24 in 6.0 mi NNE 6.9 mph - N/A   Haze
10:53 AM 48.0 °F - 35.1 °F 61% 30.25 in 10.0 mi NE 6.9 mph - N/A   Clear
11:53 AM 50.0 °F - 35.1 °F 57% 30.22 in 10.0 mi NE 6.9 mph - N/A   Clear
12:53 PM 52.0 °F - 34.0 °F 50% 30.19 in 10.0 mi Variable 4.6 mph - N/A   Clear
1:53 PM 55.0 °F - 33.1 °F 43% 30.17 in 10.0 mi NE 4.6 mph - N/A   Clear
3:53 PM 54.0 °F - 34.0 °F 47% 30.17 in 10.0 mi North 3.5 mph - N/A   Clear
4:53 PM 50.0 °F - 33.1 °F 52% 30.16 in 10.0 mi North 5.8 mph - N/A   Partly Cloudy
5:53 PM 46.9 °F - 33.1 °F 59% 30.16 in 10.0 mi Calm Calm - N/A   Clear
6:53 PM 42.1 °F - 33.1 °F 70% 30.17 in 10.0 mi Calm Calm - N/A   Clear
7:53 PM 39.0 °F - 34.0 °F 82% 30.17 in 10.0 mi Calm Calm - N/A   Clear
8:53 PM 39.0 °F 36.8 °F 35.1 °F 86% 30.17 in 10.0 mi ESE 3.5 mph - N/A   Clear
9:53 PM 39.9 °F 37.8 °F 35.1 °F 83% 30.17 in 10.0 mi ESE 3.5 mph - N/A   Clear
10:53 PM 37.9 °F - 34.0 °F 86% 30.17 in 10.0 mi Calm Calm - N/A   Clear